[[{"header":{"parameterUnit":"m.s-1","parameterCategory":1,"la1":30.2991,"la2":30.254,"lo1":-89.0895,"lo2":-89.0444,"dy":0.0017,"dx":0.0017,"nx":28,"ny":28,"refTime":"2024-02-17T09:00:00:Z","depth":0,"parameterNumber":2,"parameterNumberName":"U-component_of_WINDS"},"data":[0,0,0,0,0,0,0,0,0,0,0,0,0,0,0,0,0,0,0,0,0,0,0,0,0,0,0,0,0,0,0,0,0,0,0,0,0,0,0,0,0,0,0,0,0,0,0,0,0,0,0,0,0,0,0,0,0,0,0.1579,0.1579,0,0.1547,0.1547,0.1547,0.1542,0.1542,0.1542,0.1543,0.1507,0.1506,0.1505,0,0,0,0,0,0,0,0,0,0,0,0,0,0.1633,0.1632,0.1579,0.1579,0.1579,0.1548,0.1547,0.1547,0.1542,0.1542,0.1543,0.1543,0.1508,0.1506,0.1505,0,0,0,0,0,0,0,0,0,0,0,0,0,0.1606,0.1632,0.158,0.1573,0.1572,0.1548,0.1547,0.1547,0.1542,0.1542,0.1543,0.1543,0.1508,0.1506,0.1505,0.1484,0,0,0.1499,0.1498,0,0,0,0,0,0,0,0,0.1608,0.1604,0.1574,0.1573,0.1572,0.1549,0.1553,0.1526,0.1542,0.1553,0.1543,0.1543,0.1521,0.1518,0.1511,0.1483,0.1481,0.1499,0.1498,0.1497,0.1496,0,0,0,0,0,0,0,0.161,0.1606,0.1567,0.1574,0.1572,0.157,0.1567,0.1548,0.1535,0.1552,0.1552,0.1548,0.152,0.1513,0.151,0.1481,0.1499,0.1497,0.1496,0.1495,0.1433,0.1433,0,0,0,0,0,0,0.1613,0.1607,0.1568,0.1566,0.1591,0.1569,0.1565,0.1556,0.1535,0.1532,0.1548,0.1548,0.1516,0.1512,0.1509,0.1483,0.1497,0.1495,0.1494,0.1434,0.1433,0.1433,0,0,0,0,0,0,0.1614,0.161,0.1569,0.1586,0.1581,0.1567,0.1557,0.1555,0.1548,0.1532,0.1529,0.1543,0.1516,0.1511,0.149,0.1482,0.1494,0.1493,0.1434,0.1434,0.1433,0.1432,0,0,0,0,0,0,0.1616,0.161,0.1603,0.1586,0.158,0.1552,0.1557,0.1554,0.1545,0.1545,0.1526,0.1523,0.1516,0.1493,0.1489,0.1479,0.1491,0.1435,0.1434,0.1433,0.1432,0.1431,0.143,0,0,0,0,0,0.1618,0.1604,0.1603,0.1598,0.1571,0.1552,0.1548,0.154,0.1544,0.1536,0.1526,0.1524,0.1483,0.1491,0.1486,0.1476,0.1436,0.1434,0.1433,0.1433,0.1431,0.143,0,0,0,0,0,0,0.1619,0.1601,0.16,0.158,0.1568,0.1551,0.1541,0.1539,0.1524,0.1525,0.1515,0.151,0.149,0.1481,0.149,0.1455,0.146,0.1457,0.1461,0.1459,0.1458,0.146,0.149,0,0,0,0,0,0.1617,0.1604,0.1589,0.1573,0.1567,0.1555,0.1546,0.1541,0.1527,0.1522,0.151,0.1496,0.1479,0.1469,0.1453,0.1431,0.1426,0.1422,0.142,0.1419,0.1417,0.1403,0.1401,0.1428,0.1428,0.1428,0,0,0.1613,0.1602,0.1594,0.1573,0.1562,0.1548,0.155,0.1535,0.1523,0.1519,0.1499,0.1489,0.1473,0.1451,0.1441,0.1443,0.1408,0.1418,0.1417,0.1415,0.1402,0.1399,0.1397,0.1428,0.1428,0.1428,0,0,0.1597,0.1588,0.1573,0.1563,0.1547,0.154,0.1536,0.152,0.1513,0.1493,0.1489,0.1475,0.1448,0.1436,0.1426,0.1405,0.1403,0.1401,0.1393,0.138,0.1378,0.1376,0.1367,0.1364,0.1399,0.1399,0.1399,0,0.1594,0.1572,0.1566,0.155,0.1541,0.1537,0.1521,0.1511,0.149,0.1483,0.1486,0.1452,0.144,0.1415,0.141,0.1402,0.1397,0.1402,0.1379,0.1377,0.1375,0.1366,0.1363,0.1398,0.1398,0.1398,0.1398,0,0.1568,0.1553,0.1543,0.1524,0.1514,0.1498,0.1488,0.1477,0.1473,0.1465,0.1444,0.143,0.1411,0.1405,0.14,0.1378,0.138,0.1381,0.1386,0.1372,0.1364,0.1361,0.1398,0.1398,0.1398,0.1398,0,0,0.1552,0.153,0.1526,0.1517,0.15,0.1488,0.1471,0.1454,0.1445,0.1431,0.1416,0.1393,0.1393,0.1382,0.1377,0.1365,0.1348,0.1367,0.1367,0.1363,0.1322,0.1321,0.1318,0.1347,0.1346,0.1346,0.1323,0,0.1534,0.1506,0.1499,0.1475,0.146,0.1456,0.1442,0.1429,0.142,0.1406,0.1396,0.138,0.1382,0.1375,0.1364,0.1353,0.134,0.1355,0.1332,0.1331,0.1335,0.1314,0.1313,0.1292,0.132,0.132,0.1319,0,0.1509,0.1495,0.1469,0.1453,0.1447,0.1434,0.1417,0.1404,0.1388,0.1383,0.1371,0.1366,0.1347,0.1354,0.1327,0.1338,0.1328,0.1321,0.132,0.1317,0.1324,0.1309,0.1285,0.1282,0.1315,0.1315,0.1315,0,0.1498,0.1473,0.1455,0.1447,0.1428,0.1419,0.1411,0.1396,0.1386,0.137,0.1363,0.1346,0.1336,0.1322,0.1312,0.1317,0.1286,0.1291,0.128,0.128,0.1273,0.1273,0.1246,0.1268,0.1268,0.1268,0.1268,0,0.1478,0.1462,0.145,0.1438,0.142,0.1412,0.1394,0.1385,0.1372,0.1357,0.1352,0.1339,0.1327,0.1311,0.1303,0.1282,0.1278,0.1272,0.127,0.1272,0.1273,0.1265,0.1266,0.1267,0.1267,0.1267,0.1268,0,0.1463,0.1455,0.1434,0.1417,0.1413,0.14,0.1385,0.1373,0.1365,0.1347,0.1342,0.1328,0.131,0.1299,0.1275,0.1269,0.1245,0.1245,0.1251,0.125,0.1238,0.1239,0.1205,0.1199,0.1226,0.1225,0.1225,0,0.1451,0.1438,0.1421,0.1412,0.1403,0.1388,0.1377,0.1369,0.1358,0.1339,0.1329,0.131,0.1295,0.1265,0.1252,0.1233,0.1231,0.122,0.1228,0.123,0.123,0.123,0.1228,0.1219,0.1218,0.1218,0.1218,0,0.1428,0.1425,0.141,0.1394,0.1382,0.1369,0.1355,0.1347,0.1336,0.1324,0.1305,0.1293,0.1269,0.125,0.1231,0.122,0.1217,0.1216,0.1212,0.1213,0.1217,0.1214,0.1246,0.1216,0.1217,0.1217,0.1217,0.1217,0.1413,0.1402,0.1388,0.1372,0.1361,0.1349,0.1336,0.1327,0.1311,0.1292,0.1287,0.1267,0.1251,0.1225,0.1214,0.1197,0.1199,0.1194,0.1192,0.1191,0.119,0.1221,0.1194,0.1194,0.1194,0.1194,0.1194,0,0.139,0.1381,0.1366,0.1348,0.1335,0.1334,0.1319,0.1308,0.1291,0.1277,0.1262,0.124,0.1221,0.1207,0.1188,0.1177,0.1175,0.1172,0.1172,0.117,0.119,0.1195,0.1174,0.1174,0.1174,0.1174,0.1174,0.1174,0.1376,0.1357,0.1351,0.1326,0.1317,0.1298,0.1289,0.1277,0.1266,0.1242,0.1227,0.1218,0.1204,0.1183,0.1166,0.1162,0.1154,0.1152,0.1147,0.1166,0.1168,0.117,0.1175,0.115,0.115,0.1128,0.1128,0.1128]},{"header":{"parameterUnit":"m.s-1","parameterCategory":1,"la1":30.2991,"la2":30.254,"lo1":-89.0895,"lo2":-89.0444,"dy":0.0017,"dx":0.0017,"nx":28,"ny":28,"refTime":"2024-02-17T09:00:00:Z","depth":0,"parameterNumber":3,"parameterNumberName":"V-component_of_WINDS"},"data":[0,0,0,0,0,0,0,0,0,0,0,0,0,0,0,0,0,0,0,0,0,0,0,0,0,0,0,0,0,0,0,0,0,0,0,0,0,0,0,0,0,0,0,0,0,0,0,0,0,0,0,0,0,0,0,0,0,0,2.3363,2.3363,0,2.3387,2.3387,2.3387,2.3375,2.3375,2.3374,2.3373,2.3396,2.3397,2.3398,0,0,0,0,0,0,0,0,0,0,0,0,0,2.3306,2.3307,2.3363,2.3363,2.3363,2.3387,2.3387,2.3387,2.3375,2.3374,2.3374,2.3373,2.3395,2.3397,2.3398,0,0,0,0,0,0,0,0,0,0,0,0,0,2.333,2.3307,2.3363,2.336,2.336,2.3386,2.3387,2.3387,2.3375,2.3374,2.3374,2.3373,2.3395,2.3397,2.3398,2.3428,0,0,2.3404,2.3405,0,0,0,0,0,0,0,0,2.3329,2.3332,2.336,2.3361,2.3361,2.3377,2.3375,2.3401,2.3376,2.337,2.3373,2.3372,2.339,2.3392,2.3399,2.3429,2.343,2.3404,2.3405,2.3406,2.3406,0,0,0,0,0,0,0,2.3327,2.3331,2.3372,2.3361,2.3361,2.3357,2.336,2.338,2.3385,2.337,2.3369,2.3372,2.339,2.3397,2.3399,2.343,2.3404,2.3405,2.3407,2.3407,2.3486,2.3487,0,0,0,0,0,0,2.3326,2.333,2.3371,2.3373,2.3342,2.3359,2.3362,2.3373,2.3385,2.3385,2.3373,2.3372,2.3394,2.3397,2.34,2.3435,2.3406,2.3407,2.3408,2.3485,2.3486,2.3487,0,0,0,0,0,0,2.3324,2.3329,2.337,2.3351,2.3356,2.3361,2.3373,2.3374,2.3381,2.3387,2.3387,2.3379,2.3394,2.3397,2.3421,2.3436,2.3408,2.341,2.3484,2.3485,2.3487,2.3506,0,0,0,0,0,0,2.3323,2.3329,2.3341,2.3351,2.3357,2.3392,2.3374,2.3375,2.3384,2.3382,2.3393,2.3394,2.3393,2.3419,2.3423,2.3438,2.3411,2.3482,2.3484,2.3486,2.3504,2.3508,2.3512,0,0,0,0,0,2.3321,2.3345,2.3341,2.3346,2.3372,2.3393,2.3396,2.3396,2.3385,2.3397,2.3401,2.3393,2.3434,2.3421,2.3426,2.3442,2.3481,2.3484,2.3486,2.3503,2.3508,2.3512,0,0,0,0,0,0,2.3335,2.3346,2.3342,2.3371,2.3381,2.3391,2.3405,2.3401,2.3414,2.3411,2.341,2.3412,2.3437,2.3442,2.3427,2.3471,2.3456,2.3459,2.3467,2.3472,2.3475,2.3474,2.3413,0,0,0,0,0,2.3342,2.3358,2.3367,2.3391,2.3396,2.34,2.3409,2.3408,2.3418,2.3422,2.3428,2.3438,2.3452,2.3462,2.3476,2.3505,2.3507,2.3518,2.3522,2.3525,2.3528,2.3544,2.3549,2.3495,2.3495,2.3495,0,0,2.3355,2.3363,2.3374,2.3394,2.3402,2.3419,2.3404,2.3422,2.3434,2.3425,2.3448,2.3452,2.3463,2.349,2.3502,2.3494,2.3543,2.3528,2.353,2.3532,2.3546,2.3552,2.3556,2.3496,2.3496,2.3496,0,0,2.3388,2.3396,2.3417,2.3426,2.3438,2.344,2.3445,2.3456,2.3459,2.3482,2.3475,2.3489,2.3515,2.3523,2.353,2.3567,2.3561,2.3571,2.3591,2.3606,2.3611,2.3614,2.3628,2.3632,2.3574,2.3574,2.3574,0,2.3403,2.3429,2.3429,2.3448,2.3457,2.345,2.3471,2.3479,2.3495,2.3501,2.3493,2.3525,2.3531,2.356,2.3569,2.3575,2.358,2.357,2.361,2.3614,2.3617,2.363,2.3635,2.3576,2.3576,2.3575,2.3575,0,2.3447,2.3465,2.3481,2.3497,2.3508,2.3528,2.353,2.3541,2.3539,2.3542,2.3565,2.3573,2.3589,2.3595,2.3593,2.3624,2.3619,2.361,2.3595,2.3624,2.3636,2.364,2.3577,2.3577,2.3577,2.3576,0,0,2.349,2.3506,2.3512,2.352,2.3533,2.3546,2.3566,2.3582,2.3591,2.3602,2.3618,2.364,2.3633,2.3641,2.364,2.3653,2.3682,2.3643,2.3643,2.365,2.3716,2.3723,2.3728,2.3678,2.3679,2.368,2.3715,0,2.3525,2.356,2.356,2.3592,2.3609,2.3602,2.3619,2.3629,2.3632,2.3646,2.3649,2.3665,2.3654,2.3659,2.3672,2.3676,2.3695,2.3673,2.3693,2.3694,2.3691,2.3734,2.3741,2.3775,2.372,2.3721,2.3721,0,2.357,2.3583,2.3617,2.3628,2.3635,2.365,2.3665,2.3679,2.3689,2.3691,2.37,2.3697,2.3716,2.3701,2.3727,2.3712,2.372,2.3724,2.3725,2.3727,2.3709,2.3738,2.3785,2.379,2.3728,2.3728,2.3727,0,2.3598,2.3625,2.3649,2.3655,2.3668,2.3679,2.3685,2.3695,2.3704,2.3717,2.3723,2.3737,2.3745,2.3756,2.3757,2.3745,2.3784,2.3768,2.3785,2.3785,2.3794,2.3794,2.3844,2.3799,2.3799,2.3799,2.3799,0,2.3637,2.3658,2.3662,2.3676,2.37,2.3699,2.3722,2.3727,2.3736,2.3751,2.3746,2.376,2.3759,2.3774,2.3774,2.3796,2.38,2.3801,2.3801,2.3802,2.3802,2.3807,2.3805,2.38,2.38,2.3799,2.3799,0,2.3673,2.3676,2.3702,2.3712,2.3715,2.3732,2.3741,2.3755,2.3757,2.3777,2.3781,2.3785,2.3802,2.3804,2.3823,2.3823,2.385,2.3847,2.3847,2.3846,2.3864,2.3862,2.3919,2.3927,2.3877,2.3877,2.3878,0,2.3697,2.3714,2.3726,2.3736,2.3743,2.3759,2.3769,2.3769,2.378,2.3793,2.3805,2.3822,2.3835,2.3861,2.3866,2.3881,2.3878,2.3897,2.388,2.3881,2.3879,2.3878,2.388,2.3901,2.3901,2.3902,2.3902,0,2.3741,2.3742,2.3757,2.3772,2.3785,2.3797,2.3808,2.3816,2.3818,2.383,2.3847,2.3857,2.3877,2.3893,2.3908,2.3913,2.3908,2.3907,2.3912,2.3913,2.3913,2.3913,2.3856,2.3906,2.3906,2.3905,2.3905,2.3905,2.3772,2.3787,2.3798,2.3814,2.3823,2.3834,2.3847,2.3852,2.3867,2.3884,2.3882,2.3902,2.3912,2.393,2.3937,2.3952,2.3945,2.3952,2.3954,2.3956,2.3958,2.391,2.3954,2.3954,2.3954,2.3954,2.3954,0,2.3816,2.3823,2.3838,2.3855,2.3868,2.3862,2.3874,2.3886,2.3903,2.3913,2.3926,2.3946,2.3961,2.3967,2.3983,2.3993,2.3991,2.3997,2.3996,2.3998,2.3962,2.3957,2.3999,2.3999,2.3999,2.3999,2.3999,2.3998,2.384,2.3864,2.3866,2.3894,2.3901,2.392,2.3928,2.3937,2.3945,2.3968,2.3981,2.3985,2.3994,2.4009,2.4023,2.4025,2.4031,2.4038,2.4038,2.4005,2.4,2.3996,2.3991,2.4039,2.4039,2.4072,2.4073,2.4073]}]]